パンスターズ彗星

P/2013 O2 ( PanSTARRS )

English version
Home page
Updated on May 7, 2015

---------------------------------------------------------------------

・ プロフィール

発見日 2013年7月16日
発見光度 20.6等
発見者 Pan-STARRS 1 telescope (Haleakala)

・ 写真集

・ 軌道要素

Epoch 2013 Nov. 4.0 TT = JDT 2456600.5
T 2013 Dec. 16.36822 TT                                 MPC
q   2.1459939            (2000.0)            P               Q
n   0.13174482     Peri.  213.73998     +0.48538282     -0.86774133
a   3.8251373      Node   207.67538     +0.84438678     +0.49696889
e   0.4389760      Incl.   13.30695     +0.22674762     +0.00684804
P   7.48
From 161 observations 2013 July 16-2014 Feb. 23, mean residual 0".6.

・ 星図

・ 光度変化

        m1 = 13.2 + 5 logΔ + 10.0 log r           [    ,-125]  (              〜2013年 8月13日)
        m1 = 13.2 + 5 logΔ + 10.0 log r(t + 250)  [-125,    ]  (2013年 8月13日〜              )

        ※ 灰色の曲線は、m1 = 13.2 + 5 logΔ + 10.0 log r の光度曲線です。

---------------------------------------------------------------------

軌道要素はM.P.E.C. 2014-E18に掲載されたものです。
星図はステラナビゲータ Ver.8 (アストロアーツ) で作成したものです。
光度グラフはComet for Windowsで作成したものです。

---------------------------------------------------------------------

Copyright(C) Seiichi Yoshida (comet@aerith.net). All rights reserved.